Flag for Brazil Weather past 2 weeks in Manaus, Amazonas, Brazil

Now
79 °F

Clear.


Feels Like: 82 °F
Forecast: 77 / 85 °F
Wind: 3 mph from Northeast

Location: Manaus Aeroporto

Current Time: May 30, 2015 at 5:21:24 AM

Latest Report: May 30, 2015 at 5:00 AM


Visibility: 10 mi

Pressure: 29.83 "Hg

Humidity: 84%

Dew point: 73 °F

Location of ManausLocation

Historic Weather in Manaus — Graph

°F

Manaus temperature yesterday

Maximum temperature yesterday: 88 °F (at 1:00 PM)
Minimum temperature yesterday: 77 °F (at 2:00 AM)
Average temperature yesterday: 81 °F

Past Weeks' High & Low Weather Summary

 TemperatureHumidityPressure
High97 °F (May 23, 3:00 PM)94% (May 15, 4:00 AM)30.01 "Hg (May 15, 4:00 AM)
Low75 °F (May 16, 9:00 AM)50% (May 23, 3:00 PM)29.74 "Hg (May 28, 4:00 PM)
Average81 °F81%29.89 "Hg
* Reported May 15 4:00 AM — May 30 4:00 AM, Manaus, Weather by CustomWeather, © 2015

Note: Actual official high and low records may vary slightly from our data, if they occured in-between our weather recording intervals... More about our weather records

Advertising

Manaus weather history for previous 24 hours

 ConditionsComfort  
Time TempWeatherWind HumidityBarometerVisibility
4:00 AM
Sat, May 30
79 °FClear.3 mph84%29.80 "Hg10 mi
3:00 AM79 °FClear.1 mph84%29.80 "Hg10 mi
2:00 AM79 °FClear.2 mph84%29.83 "Hg10 mi
1:00 AM79 °FClear.2 mph84%29.83 "Hg10 mi
12:00 AM79 °FClear.3 mph84%29.83 "Hg10 mi
10:00 PM
Fri, May 29
79 °FClear.3 mph84%29.86 "Hg10 mi
9:00 PM79 °FClear.3 mph84%29.83 "Hg10 mi
8:00 PM79 °FClear.2 mph84%29.80 "Hg10 mi
7:00 PM81 °FPassing clouds.3 mph79%29.80 "HgN/A
6:00 PM81 °FPassing clouds.6 mph79%29.77 "HgN/A
5:00 PM82 °FPassing clouds.5 mph74%29.74 "HgN/A
4:00 PM82 °FScattered clouds.7 mph74%29.74 "HgN/A
3:00 PM84 °FScattered clouds.13 mph70%29.74 "HgN/A
2:00 PM88 °FScattered clouds.3 mph66%29.77 "HgN/A
1:00 PM88 °FScattered clouds.7 mph66%29.83 "HgN/A
12:00 PM86 °FScattered clouds.6 mph70%29.83 "HgN/A
11:00 AM86 °FScattered clouds.6 mph70%29.86 "HgN/A
10:00 AM84 °FScattered clouds.5 mph74%29.89 "HgN/A
9:00 AM82 °FBroken clouds.1 mph74%29.89 "HgN/A
8:00 AM82 °FPassing clouds.No wind74%29.86 "HgN/A
7:00 AM77 °FSunny.3 mph89%29.86 "Hg10 mi
6:00 AM77 °FSunny.6 mph83%29.83 "Hg10 mi
5:00 AM77 °FPassing clouds.6 mph89%29.83 "HgN/A
Weather by CustomWeather, © 2015

See weather overviewHow to use our weather pages